Tracking 17938 objects as of 24-February-2017
HD Live streaming from Space Station
objects crossing your sky now

AAUSAT CUBESAT 2

Track AAUSAT CUBESAT 2 now!
10-day predictions
AAUSAT CUBESAT 2 is classified as:


NORAD ID: 32788
Int'l Code: 2008-021F
Perigee: 584.5 km
Apogee: 602.6 km
Inclination: 97.6 °
Period: 96.4 minutes
Semi major axis: 6964 km
RCS: 0.034 m2 (small)
Launch date: April 28, 2008
Source: Denmark (DEN)
Launch site: SIRHARIKOTA (SRI)
Uplink (MHz):
Downlink (MHz): 437.429
Beacon (MHz): 437.429
Mode: 1200bps FFSK MSK
Call sign:
Status: Active


This is a CubeSat satellite. AAUSAT-II is the creation of a student team at Aalborg University in Denmark. It will downlink scientific telemetry at 437.425 MHz using 1200 or 9600-baud packet.
Your satellite tracking list
Your tracking list is empty





NASA's NSSDC Master Catalog

Two Line Element Set (TLE):
1 32788U 08021F   17054.82735236  .00000636  00000-0  65194-4 0  9996
2 32788  97.5732  95.0107 0012997 144.4581 215.7507 14.93694112478758
Source of the keplerian elements: Caltech